owner,sensor,date,latitude,longitude,vertical_datum,wind_speed,wind_to_direction,wind_speed_of_gust,qcFlag 
WAVCIS,ioos:station:WAVCIS:CSI03:3,2012-04-01T00:00:00Z,29.4412,-92.0613,10.0,2.092,189.0,,'11111222,11111222,99999999' 
WAVCIS,ioos:station:WAVCIS:CSI03:3,2012-04-01T01:00:00Z,29.4412,-92.0613,10.0,0.272,201.0,,'11111222,11111222,99999999' 
WAVCIS,ioos:station:WAVCIS:CSI03:3,2012-04-01T02:00:00Z,29.4412,-92.0613,10.0,2.511,197.0,,'11111222,11111222,99999999' 
WAVCIS,ioos:station:WAVCIS:CSI03:3,2012-04-01T03:00:00Z,29.4412,-92.0613,10.0,3.927,196.0,,'11111222,11111222,99999999' 
WAVCIS,ioos:station:WAVCIS:CSI03:3,2012-04-01T04:00:00Z,29.4412,-92.0613,10.0,1.433,195.0,,'11111222,11111222,99999999' 
WAVCIS,ioos:station:WAVCIS:CSI03:3,2012-04-01T05:00:00Z,29.4412,-92.0613,10.0,3.053,196.0,,'11111222,11111222,99999999' 
WAVCIS,ioos:station:WAVCIS:CSI03:3,2012-04-01T06:00:00Z,29.4412,-92.0613,10.0,4.03,197.0,,'11111222,11111222,99999999' 
WAVCIS,ioos:station:WAVCIS:CSI03:3,2012-04-01T07:00:00Z,29.4412,-92.0613,10.0,1.606,186.0,,'11111222,11111222,99999999' 
WAVCIS,ioos:station:WAVCIS:CSI03:3,2012-04-01T08:00:00Z,29.4412,-92.0613,10.0,2.344,184.0,,'11111222,11111222,99999999' 
WAVCIS,ioos:station:WAVCIS:CSI03:3,2012-04-01T09:00:00Z,29.4412,-92.0613,10.0,2.819,185.0,,'11111222,11111222,99999999' 
WAVCIS,ioos:station:WAVCIS:CSI03:3,2012-04-01T10:00:00Z,29.4412,-92.0613,10.0,2.466,190.0,,'11111222,11111222,99999999' 
WAVCIS,ioos:station:WAVCIS:CSI03:3,2012-04-01T11:00:00Z,29.4412,-92.0613,10.0,3.822,195.0,,'11111222,11111222,99999999' 
WAVCIS,ioos:station:WAVCIS:CSI03:3,2012-04-01T12:00:00Z,29.4412,-92.0613,10.0,3.354,192.0,,'11111222,11111222,99999999' 
WAVCIS,ioos:station:WAVCIS:CSI03:3,2012-04-01T13:00:00Z,29.4412,-92.0613,10.0,3.335,193.0,,'11111222,11111222,99999999' 
WAVCIS,ioos:station:WAVCIS:CSI03:3,2012-04-01T14:00:00Z,29.4412,-92.0613,10.0,3.062,192.0,,'11111222,11111222,99999999' 
WAVCIS,ioos:station:WAVCIS:CSI03:3,2012-04-01T15:00:00Z,29.4412,-92.0613,10.0,3.472,197.0,,'11111222,11111222,99999999' 
WAVCIS,ioos:station:WAVCIS:CSI03:3,2012-04-01T16:00:00Z,29.4412,-92.0613,10.0,4.199,182.0,,'11111222,11111222,99999999' 
WAVCIS,ioos:station:WAVCIS:CSI03:3,2012-04-01T17:00:00Z,29.4412,-92.0613,10.0,2.885,197.0,,'11111222,11111222,99999999' 
WAVCIS,ioos:station:WAVCIS:CSI03:3,2012-04-01T18:00:00Z,29.4412,-92.0613,10.0,3.217,186.0,,'11111222,11111222,99999999' 
WAVCIS,ioos:station:WAVCIS:CSI03:3,2012-04-01T19:00:00Z,29.4412,-92.0613,10.0,4.109,181.0,,'11111222,11111222,99999999' 
WAVCIS,ioos:station:WAVCIS:CSI03:3,2012-04-01T20:00:00Z,29.4412,-92.0613,10.0,3.37,190.0,,'11111222,11111222,99999999' 
WAVCIS,ioos:station:WAVCIS:CSI03:3,2012-04-01T21:00:00Z,29.4412,-92.0613,10.0,2.949,191.0,,'11111222,11111222,99999999' 
WAVCIS,ioos:station:WAVCIS:CSI03:3,2012-04-01T22:00:00Z,29.4412,-92.0613,10.0,4.595,180.0,,'11111222,11111222,99999999' 
WAVCIS,ioos:station:WAVCIS:CSI03:3,2012-04-01T23:00:00Z,29.4412,-92.0613,10.0,4.635,169.0,,'11111222,11111222,99999999' 
WAVCIS,ioos:station:WAVCIS:CSI03:3,2012-04-02T00:00:00Z,29.4412,-92.0613,10.0,6.517,165.0,,'11111222,11111222,99999999' 
WAVCIS,ioos:station:WAVCIS:CSI03:3,2012-04-02T01:00:00Z,29.4412,-92.0613,10.0,5.256,168.0,,'11111222,11111222,99999999' 
WAVCIS,ioos:station:WAVCIS:CSI03:3,2012-04-02T02:00:00Z,29.4412,-92.0613,10.0,6.643,164.0,,'11111222,11111222,99999999' 
WAVCIS,ioos:station:WAVCIS:CSI03:3,2012-04-02T03:00:00Z,29.4412,-92.0613,10.0,7.79,163.0,,'11111222,11111222,99999999' 
WAVCIS,ioos:station:WAVCIS:CSI03:3,2012-04-02T04:00:00Z,29.4412,-92.0613,10.0,7.69,161.0,,'11111222,11111222,99999999' 
WAVCIS,ioos:station:WAVCIS:CSI03:3,2012-04-02T05:00:00Z,29.4412,-92.0613,10.0,7.76,157.0,,'11111222,11111222,99999999' 
WAVCIS,ioos:station:WAVCIS:CSI03:3,2012-04-02T06:00:00Z,29.4412,-92.0613,10.0,7.57,158.0,,'11111222,11111222,99999999' 
WAVCIS,ioos:station:WAVCIS:CSI03:3,2012-04-02T07:00:00Z,29.4412,-92.0613,10.0,7.4,158.0,,'11111222,11111222,99999999' 
WAVCIS,ioos:station:WAVCIS:CSI03:3,2012-04-02T08:00:00Z,29.4412,-92.0613,10.0,7.36,157.0,,'11111222,11111222,99999999' 
WAVCIS,ioos:station:WAVCIS:CSI03:3,2012-04-02T09:00:00Z,29.4412,-92.0613,10.0,6.88,164.0,,'11111222,11111222,99999999' 
WAVCIS,ioos:station:WAVCIS:CSI03:3,2012-04-02T10:00:00Z,29.4412,-92.0613,10.0,5.515,176.0,,'11111222,11111222,99999999' 
WAVCIS,ioos:station:WAVCIS:CSI03:3,2012-04-02T11:00:00Z,29.4412,-92.0613,10.0,2.948,181.0,,'11111222,11111222,99999999' 
WAVCIS,ioos:station:WAVCIS:CSI03:3,2012-04-02T12:00:00Z,29.4412,-92.0613,10.0,7.16,162.0,,'11111222,11111222,99999999' 
WAVCIS,ioos:station:WAVCIS:CSI03:3,2012-04-02T13:00:00Z,29.4412,-92.0613,10.0,6.984,161.0,,'11111222,11111222,99999999' 
WAVCIS,ioos:station:WAVCIS:CSI03:3,2012-04-02T14:00:00Z,29.4412,-92.0613,10.0,8.85,156.0,,'11111222,11111222,99999999' 
WAVCIS,ioos:station:WAVCIS:CSI03:3,2012-04-02T15:00:00Z,29.4412,-92.0613,10.0,9.1,162.0,,'11111222,11111222,99999999' 
WAVCIS,ioos:station:WAVCIS:CSI03:3,2012-04-02T16:00:00Z,29.4412,-92.0613,10.0,9.56,166.0,,'11111222,11111222,99999999' 
WAVCIS,ioos:station:WAVCIS:CSI03:3,2012-04-02T17:00:00Z,29.4412,-92.0613,10.0,9.46,163.0,,'11111222,11111222,99999999' 
WAVCIS,ioos:station:WAVCIS:CSI03:3,2012-04-02T18:00:00Z,29.4412,-92.0613,10.0,8.5,287.0,,'11111222,11111222,99999999' 
WAVCIS,ioos:station:WAVCIS:CSI03:3,2012-04-02T19:00:00Z,29.4412,-92.0613,10.0,4.685,326.0,,'11111222,11111222,99999999' 
WAVCIS,ioos:station:WAVCIS:CSI03:3,2012-04-02T20:00:00Z,29.4412,-92.0613,10.0,6.609,43.0,,'11111222,11111222,99999999' 
WAVCIS,ioos:station:WAVCIS:CSI03:3,2012-04-02T21:00:00Z,29.4412,-92.0613,10.0,5.537,65.0,,'11111222,11111222,99999999' 
WAVCIS,ioos:station:WAVCIS:CSI03:3,2012-04-02T22:00:00Z,29.4412,-92.0613,10.0,5.805,88.0,,'11111222,11111222,99999999' 
WAVCIS,ioos:station:WAVCIS:CSI03:3,2012-04-02T23:00:00Z,29.4412,-92.0613,10.0,5.316,117.0,,'11111222,11111222,99999999' 
WAVCIS,ioos:station:WAVCIS:CSI03:3,2012-04-03T00:00:00Z,29.4412,-92.0613,10.0,5.349,124.0,,'11111222,11111222,99999999' 
WAVCIS,ioos:station:WAVCIS:CSI03:3,2012-04-03T01:00:00Z,29.4412,-92.0613,10.0,6.423,104.0,,'11111222,11111222,99999999' 
WAVCIS,ioos:station:WAVCIS:CSI03:3,2012-04-03T02:00:00Z,29.4412,-92.0613,10.0,5.497,156.0,,'11111222,11111222,99999999' 
WAVCIS,ioos:station:WAVCIS:CSI03:3,2012-04-03T03:00:00Z,29.4412,-92.0613,10.0,7.84,169.0,,'11111222,11111222,99999999' 
WAVCIS,ioos:station:WAVCIS:CSI03:3,2012-04-03T04:00:00Z,29.4412,-92.0613,10.0,9.75,168.0,,'11111222,11111222,99999999' 
WAVCIS,ioos:station:WAVCIS:CSI03:3,2012-04-03T05:00:00Z,29.4412,-92.0613,10.0,10.27,166.0,,'11111222,11111222,99999999' 
WAVCIS,ioos:station:WAVCIS:CSI03:3,2012-04-03T06:00:00Z,29.4412,-92.0613,10.0,11.09,113.0,,'11111222,11111222,99999999' 
WAVCIS,ioos:station:WAVCIS:CSI03:3,2012-04-03T07:00:00Z,29.4412,-92.0613,10.0,11.2,108.0,,'11111222,11111222,99999999' 
WAVCIS,ioos:station:WAVCIS:CSI03:3,2012-04-03T08:00:00Z,29.4412,-92.0613,10.0,11.88,140.0,,'11111222,11111222,99999999' 
WAVCIS,ioos:station:WAVCIS:CSI03:3,2012-04-03T09:00:00Z,29.4412,-92.0613,10.0,10.23,154.0,,'11111222,11111222,99999999' 
WAVCIS,ioos:station:WAVCIS:CSI03:3,2012-04-03T10:00:00Z,29.4412,-92.0613,10.0,9.12,160.0,,'11111222,11111222,99999999' 
WAVCIS,ioos:station:WAVCIS:CSI03:3,2012-04-03T11:00:00Z,29.4412,-92.0613,10.0,8.69,162.0,,'11111222,11111222,99999999' 
WAVCIS,ioos:station:WAVCIS:CSI03:3,2012-04-03T12:00:00Z,29.4412,-92.0613,10.0,6.822,160.0,,'11111222,11111222,99999999' 
WAVCIS,ioos:station:WAVCIS:CSI03:3,2012-04-03T13:00:00Z,29.4412,-92.0613,10.0,6.719,157.0,,'11111222,11111222,99999999' 
WAVCIS,ioos:station:WAVCIS:CSI03:3,2012-04-03T14:00:00Z,29.4412,-92.0613,10.0,7.11,119.0,,'11111222,11111222,99999999' 
WAVCIS,ioos:station:WAVCIS:CSI03:3,2012-04-03T15:00:00Z,29.4412,-92.0613,10.0,7.29,123.0,,'11111222,11111222,99999999' 
WAVCIS,ioos:station:WAVCIS:CSI03:3,2012-04-03T16:00:00Z,29.4412,-92.0613,10.0,8.43,125.0,,'11111222,11111222,99999999' 
WAVCIS,ioos:station:WAVCIS:CSI03:3,2012-04-03T17:00:00Z,29.4412,-92.0613,10.0,9.01,135.0,,'11111222,11111222,99999999' 
WAVCIS,ioos:station:WAVCIS:CSI03:3,2012-04-03T18:00:00Z,29.4412,-92.0613,10.0,7.96,136.0,,'11111222,11111222,99999999' 
WAVCIS,ioos:station:WAVCIS:CSI03:3,2012-04-03T19:00:00Z,29.4412,-92.0613,10.0,7.84,137.0,,'11111222,11111222,99999999' 
WAVCIS,ioos:station:WAVCIS:CSI03:3,2012-04-03T20:00:00Z,29.4412,-92.0613,10.0,7.78,135.0,,'11111222,11111222,99999999' 
WAVCIS,ioos:station:WAVCIS:CSI03:3,2012-04-03T21:00:00Z,29.4412,-92.0613,10.0,8.12,134.0,,'11111222,11111222,99999999' 
WAVCIS,ioos:station:WAVCIS:CSI03:3,2012-04-03T22:00:00Z,29.4412,-92.0613,10.0,7.94,132.0,,'11111222,11111222,99999999' 
WAVCIS,ioos:station:WAVCIS:CSI03:3,2012-04-03T23:00:00Z,29.4412,-92.0613,10.0,7.61,143.0,,'11111222,11111222,99999999' 
WAVCIS,ioos:station:WAVCIS:CSI03:3,2012-04-04T00:00:00Z,29.4412,-92.0613,10.0,9.29,156.0,,'11111222,11111222,99999999' 
WAVCIS,ioos:station:WAVCIS:CSI03:3,2012-04-04T01:00:00Z,29.4412,-92.0613,10.0,9.99,148.0,,'11111222,11111222,99999999' 
WAVCIS,ioos:station:WAVCIS:CSI03:3,2012-04-04T02:00:00Z,29.4412,-92.0613,10.0,9.33,143.0,,'11111222,11111222,99999999' 
WAVCIS,ioos:station:WAVCIS:CSI03:3,2012-04-04T03:00:00Z,29.4412,-92.0613,10.0,7.86,150.0,,'11111222,11111222,99999999' 
WAVCIS,ioos:station:WAVCIS:CSI03:3,2012-04-04T04:00:00Z,29.4412,-92.0613,10.0,7.89,158.0,,'11111222,11111222,99999999' 
WAVCIS,ioos:station:WAVCIS:CSI03:3,2012-04-04T05:00:00Z,29.4412,-92.0613,10.0,7.4,162.0,,'11111222,11111222,99999999' 
WAVCIS,ioos:station:WAVCIS:CSI03:3,2012-04-04T06:00:00Z,29.4412,-92.0613,10.0,7.1,159.0,,'11111222,11111222,99999999' 
WAVCIS,ioos:station:WAVCIS:CSI03:3,2012-04-04T07:00:00Z,29.4412,-92.0613,10.0,8.42,162.0,,'11111222,11111222,99999999' 
WAVCIS,ioos:station:WAVCIS:CSI03:3,2012-04-04T08:00:00Z,29.4412,-92.0613,10.0,6.437,166.0,,'11111222,11111222,99999999' 
WAVCIS,ioos:station:WAVCIS:CSI03:3,2012-04-04T09:00:00Z,29.4412,-92.0613,10.0,3.334,179.0,,'11111222,11111222,99999999' 
WAVCIS,ioos:station:WAVCIS:CSI03:3,2012-04-04T10:00:00Z,29.4412,-92.0613,10.0,5.5,173.0,,'11111222,11111222,99999999' 
WAVCIS,ioos:station:WAVCIS:CSI03:3,2012-04-04T11:00:00Z,29.4412,-92.0613,10.0,14.07,49.0,,'11111222,11111222,99999999' 
WAVCIS,ioos:station:WAVCIS:CSI03:3,2012-04-04T12:00:00Z,29.4412,-92.0613,10.0,14.71,64.0,,'11111222,11111222,99999999' 
WAVCIS,ioos:station:WAVCIS:CSI03:3,2012-04-04T13:00:00Z,29.4412,-92.0613,10.0,12.55,98.0,,'11111222,11111222,99999999' 
WAVCIS,ioos:station:WAVCIS:CSI03:3,2012-04-04T14:00:00Z,29.4412,-92.0613,10.0,12.08,114.0,,'11111222,11111222,99999999' 
WAVCIS,ioos:station:WAVCIS:CSI03:3,2012-04-04T15:00:00Z,29.4412,-92.0613,10.0,11.12,139.0,,'11111222,11111222,99999999' 
WAVCIS,ioos:station:WAVCIS:CSI03:3,2012-04-04T16:00:00Z,29.4412,-92.0613,10.0,9.65,156.0,,'11111222,11111222,99999999' 
WAVCIS,ioos:station:WAVCIS:CSI03:3,2012-04-04T17:00:00Z,29.4412,-92.0613,10.0,2.484,185.0,,'11111222,11111222,99999999' 
WAVCIS,ioos:station:WAVCIS:CSI03:3,2012-04-04T18:00:00Z,29.4412,-92.0613,10.0,1.828,177.0,,'11111222,11111222,99999999' 
WAVCIS,ioos:station:WAVCIS:CSI03:3,2012-04-04T19:00:00Z,29.4412,-92.0613,10.0,5.921,165.0,,'11111222,11111222,99999999' 
WAVCIS,ioos:station:WAVCIS:CSI03:3,2012-04-04T20:00:00Z,29.4412,-92.0613,10.0,3.43,136.0,,'11111222,11111222,99999999' 
WAVCIS,ioos:station:WAVCIS:CSI03:3,2012-04-04T21:00:00Z,29.4412,-92.0613,10.0,4.082,127.0,,'11111222,11111222,99999999' 
WAVCIS,ioos:station:WAVCIS:CSI03:3,2012-04-04T22:00:00Z,29.4412,-92.0613,10.0,5.385,179.0,,'11111222,11111222,99999999' 
WAVCIS,ioos:station:WAVCIS:CSI03:3,2012-04-04T23:00:00Z,29.4412,-92.0613,10.0,3.572,188.0,,'11111222,11111222,99999999' 
WAVCIS,ioos:station:WAVCIS:CSI03:3,2012-04-05T00:00:00Z,29.4412,-92.0613,10.0,3.918,196.0,,'11111222,11111222,99999999' 
WAVCIS,ioos:station:WAVCIS:CSI03:3,2012-04-05T01:00:00Z,29.4412,-92.0613,10.0,4.67,179.0,,'11111222,11111222,99999999' 
WAVCIS,ioos:station:WAVCIS:CSI03:3,2012-04-05T02:00:00Z,29.4412,-92.0613,10.0,4.677,197.0,,'11111222,11111222,99999999' 
WAVCIS,ioos:station:WAVCIS:CSI03:3,2012-04-05T03:00:00Z,29.4412,-92.0613,10.0,4.155,234.0,,'11111222,11111222,99999999' 
WAVCIS,ioos:station:WAVCIS:CSI03:3,2012-04-05T04:00:00Z,29.4412,-92.0613,10.0,4.182,187.0,,'11111222,11111222,99999999' 
WAVCIS,ioos:station:WAVCIS:CSI03:3,2012-04-05T05:00:00Z,29.4412,-92.0613,10.0,6.021,123.0,,'11111222,11111222,99999999' 
WAVCIS,ioos:station:WAVCIS:CSI03:3,2012-04-05T06:00:00Z,29.4412,-92.0613,10.0,2.267,185.0,,'11111222,11111222,99999999' 
WAVCIS,ioos:station:WAVCIS:CSI03:3,2012-04-05T07:00:00Z,29.4412,-92.0613,10.0,1.27,224.0,,'11111222,11111222,99999999' 
WAVCIS,ioos:station:WAVCIS:CSI03:3,2012-04-05T08:00:00Z,29.4412,-92.0613,10.0,3.516,240.0,,'11111222,11111222,99999999' 
WAVCIS,ioos:station:WAVCIS:CSI03:3,2012-04-05T09:00:00Z,29.4412,-92.0613,10.0,3.244,246.0,,'11111222,11111222,99999999' 
WAVCIS,ioos:station:WAVCIS:CSI03:3,2012-04-05T10:00:00Z,29.4412,-92.0613,10.0,7.94,268.0,,'11111222,11111222,99999999' 
WAVCIS,ioos:station:WAVCIS:CSI03:3,2012-04-05T11:00:00Z,29.4412,-92.0613,10.0,7.7,262.0,,'11111222,11111222,99999999' 
WAVCIS,ioos:station:WAVCIS:CSI03:3,2012-04-05T12:00:00Z,29.4412,-92.0613,10.0,8.0,265.0,,'11111222,11111222,99999999' 
WAVCIS,ioos:station:WAVCIS:CSI03:3,2012-04-05T13:00:00Z,29.4412,-92.0613,10.0,4.944,250.0,,'11111222,11111222,99999999' 
WAVCIS,ioos:station:WAVCIS:CSI03:3,2012-04-05T14:00:00Z,29.4412,-92.0613,10.0,8.09,262.0,,'11111222,11111222,99999999' 
WAVCIS,ioos:station:WAVCIS:CSI03:3,2012-04-05T15:00:00Z,29.4412,-92.0613,10.0,8.82,269.0,,'11111222,11111222,99999999' 
WAVCIS,ioos:station:WAVCIS:CSI03:3,2012-04-05T16:00:00Z,29.4412,-92.0613,10.0,8.22,279.0,,'11111222,11111222,99999999' 
WAVCIS,ioos:station:WAVCIS:CSI03:3,2012-04-05T17:00:00Z,29.4412,-92.0613,10.0,9.9,286.0,,'11111222,11111222,99999999' 
WAVCIS,ioos:station:WAVCIS:CSI03:3,2012-04-05T18:00:00Z,29.4412,-92.0613,10.0,9.0,287.0,,'11111222,11111222,99999999' 
WAVCIS,ioos:station:WAVCIS:CSI03:3,2012-04-05T19:00:00Z,29.4412,-92.0613,10.0,6.894,294.0,,'11111222,11111222,99999999' 
WAVCIS,ioos:station:WAVCIS:CSI03:3,2012-04-05T20:00:00Z,29.4412,-92.0613,10.0,5.166,291.0,,'11111222,11111222,99999999' 
WAVCIS,ioos:station:WAVCIS:CSI03:3,2012-04-05T21:00:00Z,29.4412,-92.0613,10.0,7.37,285.0,,'11111222,11111222,99999999' 
WAVCIS,ioos:station:WAVCIS:CSI03:3,2012-04-05T22:00:00Z,29.4412,-92.0613,10.0,6.912,283.0,,'11111222,11111222,99999999' 
WAVCIS,ioos:station:WAVCIS:CSI03:3,2012-04-05T23:00:00Z,29.4412,-92.0613,10.0,7.01,285.0,,'11111222,11111222,99999999' 
WAVCIS,ioos:station:WAVCIS:CSI03:3,2012-04-06T00:00:00Z,29.4412,-92.0613,10.0,6.494,284.0,,'11111222,11111222,99999999' 
WAVCIS,ioos:station:WAVCIS:CSI03:3,2012-04-06T01:00:00Z,29.4412,-92.0613,10.0,5.974,282.0,,'11111222,11111222,99999999' 
WAVCIS,ioos:station:WAVCIS:CSI03:3,2012-04-06T02:00:00Z,29.4412,-92.0613,10.0,5.995,288.0,,'11111222,11111222,99999999' 
WAVCIS,ioos:station:WAVCIS:CSI03:3,2012-04-06T03:00:00Z,29.4412,-92.0613,10.0,3.869,289.0,,'11111222,11111222,99999999' 
WAVCIS,ioos:station:WAVCIS:CSI03:3,2012-04-06T04:00:00Z,29.4412,-92.0613,10.0,5.043,323.0,,'11111222,11111222,99999999' 
WAVCIS,ioos:station:WAVCIS:CSI03:3,2012-04-06T05:00:00Z,29.4412,-92.0613,10.0,5.284,46.0,,'11111222,11111222,99999999' 
WAVCIS,ioos:station:WAVCIS:CSI03:3,2012-04-06T06:00:00Z,29.4412,-92.0613,10.0,4.294,36.0,,'11111222,11111222,99999999' 
WAVCIS,ioos:station:WAVCIS:CSI03:3,2012-04-06T07:00:00Z,29.4412,-92.0613,10.0,5.946,44.0,,'11111222,11111222,99999999' 
WAVCIS,ioos:station:WAVCIS:CSI03:3,2012-04-06T08:00:00Z,29.4412,-92.0613,10.0,6.671,54.0,,'11111222,11111222,99999999' 
WAVCIS,ioos:station:WAVCIS:CSI03:3,2012-04-06T09:00:00Z,29.4412,-92.0613,10.0,7.97,62.0,,'11111222,11111222,99999999' 
WAVCIS,ioos:station:WAVCIS:CSI03:3,2012-04-06T10:00:00Z,29.4412,-92.0613,10.0,6.922,62.0,,'11111222,11111222,99999999' 
WAVCIS,ioos:station:WAVCIS:CSI03:3,2012-04-06T11:00:00Z,29.4412,-92.0613,10.0,6.456,63.0,,'11111222,11111222,99999999' 
WAVCIS,ioos:station:WAVCIS:CSI03:3,2012-04-06T12:00:00Z,29.4412,-92.0613,10.0,7.24,62.0,,'11111222,11111222,99999999' 
WAVCIS,ioos:station:WAVCIS:CSI03:3,2012-04-06T13:00:00Z,29.4412,-92.0613,10.0,6.439,64.0,,'11111222,11111222,99999999' 
WAVCIS,ioos:station:WAVCIS:CSI03:3,2012-04-06T14:00:00Z,29.4412,-92.0613,10.0,5.774,69.0,,'11111222,11111222,99999999' 
WAVCIS,ioos:station:WAVCIS:CSI03:3,2012-04-06T15:00:00Z,29.4412,-92.0613,10.0,6.031,71.0,,'11111222,11111222,99999999' 
WAVCIS,ioos:station:WAVCIS:CSI03:3,2012-04-06T16:00:00Z,29.4412,-92.0613,10.0,5.468,62.0,,'11111222,11111222,99999999' 
WAVCIS,ioos:station:WAVCIS:CSI03:3,2012-04-06T17:00:00Z,29.4412,-92.0613,10.0,4.643,58.0,,'11111222,11111222,99999999' 
WAVCIS,ioos:station:WAVCIS:CSI03:3,2012-04-06T18:00:00Z,29.4412,-92.0613,10.0,1.887,0.0,,'11111222,11111222,99999999' 
WAVCIS,ioos:station:WAVCIS:CSI03:3,2012-04-06T19:00:00Z,29.4412,-92.0613,10.0,2.838,41.0,,'11111222,11111222,99999999' 
WAVCIS,ioos:station:WAVCIS:CSI03:3,2012-04-06T20:00:00Z,29.4412,-92.0613,10.0,3.479,23.0,,'11111222,11111222,99999999' 
WAVCIS,ioos:station:WAVCIS:CSI03:3,2012-04-06T21:00:00Z,29.4412,-92.0613,10.0,2.671,28.0,,'11111222,11111222,99999999' 
WAVCIS,ioos:station:WAVCIS:CSI03:3,2012-04-06T22:00:00Z,29.4412,-92.0613,10.0,1.663,15.0,,'11111222,11111222,99999999' 
WAVCIS,ioos:station:WAVCIS:CSI03:3,2012-04-06T23:00:00Z,29.4412,-92.0613,10.0,2.152,10.0,,'11111222,11111222,99999999' 
WAVCIS,ioos:station:WAVCIS:CSI03:3,2012-04-07T00:00:00Z,29.4412,-92.0613,10.0,2.351,20.0,,'11111222,11111222,99999999' 
WAVCIS,ioos:station:WAVCIS:CSI03:3,2012-04-07T01:00:00Z,29.4412,-92.0613,10.0,3.23,38.0,,'11111222,11111222,99999999' 
WAVCIS,ioos:station:WAVCIS:CSI03:3,2012-04-07T02:00:00Z,29.4412,-92.0613,10.0,3.839,355.0,,'11111222,11111222,99999999' 
WAVCIS,ioos:station:WAVCIS:CSI03:3,2012-04-07T03:00:00Z,29.4412,-92.0613,10.0,6.182,44.0,,'11111222,11111222,99999999' 
WAVCIS,ioos:station:WAVCIS:CSI03:3,2012-04-07T04:00:00Z,29.4412,-92.0613,10.0,8.05,48.0,,'11111222,11111222,99999999' 
WAVCIS,ioos:station:WAVCIS:CSI03:3,2012-04-07T05:00:00Z,29.4412,-92.0613,10.0,8.2,48.0,,'11111222,11111222,99999999' 
WAVCIS,ioos:station:WAVCIS:CSI03:3,2012-04-07T06:00:00Z,29.4412,-92.0613,10.0,7.81,58.0,,'11111222,11111222,99999999' 
WAVCIS,ioos:station:WAVCIS:CSI03:3,2012-04-07T07:00:00Z,29.4412,-92.0613,10.0,7.37,65.0,,'11111222,11111222,99999999' 
WAVCIS,ioos:station:WAVCIS:CSI03:3,2012-04-07T08:00:00Z,29.4412,-92.0613,10.0,8.32,73.0,,'11111222,11111222,99999999' 
WAVCIS,ioos:station:WAVCIS:CSI03:3,2012-04-07T09:00:00Z,29.4412,-92.0613,10.0,6.785,73.0,,'11111222,11111222,99999999' 
WAVCIS,ioos:station:WAVCIS:CSI03:3,2012-04-07T10:00:00Z,29.4412,-92.0613,10.0,6.375,74.0,,'11111222,11111222,99999999' 
WAVCIS,ioos:station:WAVCIS:CSI03:3,2012-04-07T11:00:00Z,29.4412,-92.0613,10.0,6.781,71.0,,'11111222,11111222,99999999' 
WAVCIS,ioos:station:WAVCIS:CSI03:3,2012-04-07T12:00:00Z,29.4412,-92.0613,10.0,6.276,75.0,,'11111222,11111222,99999999' 
WAVCIS,ioos:station:WAVCIS:CSI03:3,2012-04-07T13:00:00Z,29.4412,-92.0613,10.0,5.57,84.0,,'11111222,11111222,99999999' 
WAVCIS,ioos:station:WAVCIS:CSI03:3,2012-04-07T14:00:00Z,29.4412,-92.0613,10.0,6.624,96.0,,'11111222,11111222,99999999' 
WAVCIS,ioos:station:WAVCIS:CSI03:3,2012-04-07T15:00:00Z,29.4412,-92.0613,10.0,6.132,100.0,,'11111222,11111222,99999999' 
WAVCIS,ioos:station:WAVCIS:CSI03:3,2012-04-07T16:00:00Z,29.4412,-92.0613,10.0,6.5,108.0,,'11111222,11111222,99999999' 
WAVCIS,ioos:station:WAVCIS:CSI03:3,2012-04-07T17:00:00Z,29.4412,-92.0613,10.0,7.43,110.0,,'11111222,11111222,99999999' 
WAVCIS,ioos:station:WAVCIS:CSI03:3,2012-04-07T18:00:00Z,29.4412,-92.0613,10.0,5.989,111.0,,'11111222,11111222,99999999' 
WAVCIS,ioos:station:WAVCIS:CSI03:3,2012-04-07T19:00:00Z,29.4412,-92.0613,10.0,5.196,118.0,,'11111222,11111222,99999999' 
WAVCIS,ioos:station:WAVCIS:CSI03:3,2012-04-07T20:00:00Z,29.4412,-92.0613,10.0,4.813,125.0,,'11111222,11111222,99999999' 
WAVCIS,ioos:station:WAVCIS:CSI03:3,2012-04-07T21:00:00Z,29.4412,-92.0613,10.0,4.739,150.0,,'11111222,11111222,99999999' 
WAVCIS,ioos:station:WAVCIS:CSI03:3,2012-04-07T22:00:00Z,29.4412,-92.0613,10.0,4.056,153.0,,'11111222,11111222,99999999' 
WAVCIS,ioos:station:WAVCIS:CSI03:3,2012-04-07T23:00:00Z,29.4412,-92.0613,10.0,3.208,151.0,,'11111222,11111222,99999999' 
WAVCIS,ioos:station:WAVCIS:CSI03:3,2012-04-08T00:00:00Z,29.4412,-92.0613,10.0,3.477,159.0,,'11111222,11111222,99999999' 
WAVCIS,ioos:station:WAVCIS:CSI03:3,2012-04-08T01:00:00Z,29.4412,-92.0613,10.0,3.429,141.0,,'11111222,11111222,99999999' 
WAVCIS,ioos:station:WAVCIS:CSI03:3,2012-04-08T02:00:00Z,29.4412,-92.0613,10.0,3.471,137.0,,'11111222,11111222,99999999' 
WAVCIS,ioos:station:WAVCIS:CSI03:3,2012-04-08T03:00:00Z,29.4412,-92.0613,10.0,5.727,131.0,,'11111222,11111222,99999999' 
WAVCIS,ioos:station:WAVCIS:CSI03:3,2012-04-08T04:00:00Z,29.4412,-92.0613,10.0,7.47,126.0,,'11111222,11111222,99999999' 
WAVCIS,ioos:station:WAVCIS:CSI03:3,2012-04-08T05:00:00Z,29.4412,-92.0613,10.0,7.03,120.0,,'11111222,11111222,99999999' 
WAVCIS,ioos:station:WAVCIS:CSI03:3,2012-04-08T06:00:00Z,29.4412,-92.0613,10.0,6.372,152.0,,'11111222,11111222,99999999' 
WAVCIS,ioos:station:WAVCIS:CSI03:3,2012-04-08T07:00:00Z,29.4412,-92.0613,10.0,5.337,141.0,,'11111222,11111222,99999999' 
WAVCIS,ioos:station:WAVCIS:CSI03:3,2012-04-08T08:00:00Z,29.4412,-92.0613,10.0,4.291,119.0,,'11111222,11111222,99999999' 
WAVCIS,ioos:station:WAVCIS:CSI03:3,2012-04-08T09:00:00Z,29.4412,-92.0613,10.0,4.191,85.0,,'11111222,11111222,99999999' 
WAVCIS,ioos:station:WAVCIS:CSI03:3,2012-04-08T10:00:00Z,29.4412,-92.0613,10.0,4.331,88.0,,'11111222,11111222,99999999' 
WAVCIS,ioos:station:WAVCIS:CSI03:3,2012-04-08T11:00:00Z,29.4412,-92.0613,10.0,5.186,99.0,,'11111222,11111222,99999999' 
WAVCIS,ioos:station:WAVCIS:CSI03:3,2012-04-08T12:00:00Z,29.4412,-92.0613,10.0,4.338,82.0,,'11111222,11111222,99999999' 
WAVCIS,ioos:station:WAVCIS:CSI03:3,2012-04-08T13:00:00Z,29.4412,-92.0613,10.0,4.108,86.0,,'11111222,11111222,99999999' 
WAVCIS,ioos:station:WAVCIS:CSI03:3,2012-04-08T14:00:00Z,29.4412,-92.0613,10.0,4.1,72.0,,'11111222,11111222,99999999' 
WAVCIS,ioos:station:WAVCIS:CSI03:3,2012-04-08T15:00:00Z,29.4412,-92.0613,10.0,3.761,65.0,,'11111222,11111222,99999999' 
WAVCIS,ioos:station:WAVCIS:CSI03:3,2012-04-08T16:00:00Z,29.4412,-92.0613,10.0,3.097,65.0,,'11111222,11111222,99999999' 
WAVCIS,ioos:station:WAVCIS:CSI03:3,2012-04-08T17:00:00Z,29.4412,-92.0613,10.0,3.059,113.0,,'11111222,11111222,99999999' 
WAVCIS,ioos:station:WAVCIS:CSI03:3,2012-04-08T18:00:00Z,29.4412,-92.0613,10.0,3.294,130.0,,'11111222,11111222,99999999' 
WAVCIS,ioos:station:WAVCIS:CSI03:3,2012-04-08T19:00:00Z,29.4412,-92.0613,10.0,3.039,141.0,,'11111222,11111222,99999999' 
WAVCIS,ioos:station:WAVCIS:CSI03:3,2012-04-08T20:00:00Z,29.4412,-92.0613,10.0,2.97,146.0,,'11111222,11111222,99999999' 
WAVCIS,ioos:station:WAVCIS:CSI03:3,2012-04-08T21:00:00Z,29.4412,-92.0613,10.0,3.791,146.0,,'11111222,11111222,99999999' 
WAVCIS,ioos:station:WAVCIS:CSI03:3,2012-04-08T22:00:00Z,29.4412,-92.0613,10.0,3.13,169.0,,'11111222,11111222,99999999' 
WAVCIS,ioos:station:WAVCIS:CSI03:3,2012-04-08T23:00:00Z,29.4412,-92.0613,10.0,3.084,147.0,,'11111222,11111222,99999999' 
WAVCIS,ioos:station:WAVCIS:CSI03:3,2012-04-09T00:00:00Z,29.4412,-92.0613,10.0,2.962,150.0,,'11111222,11111222,99999999' 
WAVCIS,ioos:station:WAVCIS:CSI03:3,2012-04-09T01:00:00Z,29.4412,-92.0613,10.0,2.418,180.0,,'11111222,11111222,99999999' 
WAVCIS,ioos:station:WAVCIS:CSI03:3,2012-04-09T02:00:00Z,29.4412,-92.0613,10.0,1.445,176.0,,'11111222,11111222,99999999' 
WAVCIS,ioos:station:WAVCIS:CSI03:3,2012-04-09T03:00:00Z,29.4412,-92.0613,10.0,1.638,252.0,,'11111222,11111222,99999999' 
WAVCIS,ioos:station:WAVCIS:CSI03:3,2012-04-09T04:00:00Z,29.4412,-92.0613,10.0,3.371,263.0,,'11111222,11111222,99999999' 
WAVCIS,ioos:station:WAVCIS:CSI03:3,2012-04-09T05:00:00Z,29.4412,-92.0613,10.0,3.445,285.0,,'11111222,11111222,99999999' 